SAS2949 ESSA-LEZL

Flight info

Callsign SAS2949
Flight time N/A
Altitude 36000
Route PETEV N872 ELPAX DCT ASVAN DCT DOSUR DCT WANZA DCT GISEB DCT WOODY/N0447F370 N872 MEDIL DCT KOVIN DCT DUCRA UM728 RESMI UN857 DISAK DCT DIRMO DCT ARTAX DCT BEBIX DCT LMG DCT UVELI DCT OSMOB DCT VAVIX DCT NETUK N857 HIJ
Aircraft A319/M-SDE3FGIJ1RWXY/LB1

Departure

Time 2026-05-05 17:59
Airport Stockholm-Arlanda Airport (ESSA)

Arrival

Time N/A
Airport Seville Airport (LEZL)
Time Latitude Longitude Altitude Speed Heading
2026-05-05 17:25 59.65384 17.93037 112 ft 0 kts 190°
2026-05-05 17:51 59.65386 17.93038 112 ft 2 kts 190°
2026-05-05 17:51 59.65411 17.93048 109 ft 3 kts 191°
2026-05-05 17:51 59.65427 17.93059 108 ft 4 kts 256°
2026-05-05 17:51 59.65432 17.93101 109 ft 2 kts 255°
2026-05-05 17:52 59.65432 17.93103 109 ft 1 kts 255°
2026-05-05 17:54 59.65429 17.93077 110 ft 4 kts 255°
2026-05-05 17:54 59.65420 17.92996 112 ft 7 kts 269°
2026-05-05 17:54 59.65458 17.92925 112 ft 9 kts 317°
2026-05-05 17:54 59.65447 17.92766 111 ft 15 kts 241°
2026-05-05 17:55 59.65384 17.92566 110 ft 18 kts 233°
2026-05-05 17:55 59.65275 17.92426 110 ft 19 kts 204°
2026-05-05 17:55 59.65142 17.92360 112 ft 20 kts 190°
2026-05-05 17:55 59.64999 17.92311 112 ft 21 kts 190°
2026-05-05 17:56 59.64859 17.92261 112 ft 21 kts 190°
2026-05-05 17:56 59.64727 17.92212 112 ft 19 kts 191°
2026-05-05 17:56 59.64599 17.92166 112 ft 17 kts 190°
2026-05-05 17:56 59.64481 17.92124 113 ft 18 kts 190°
2026-05-05 17:57 59.64413 17.91993 112 ft 9 kts 259°
2026-05-05 17:57 59.64404 17.91879 111 ft 10 kts 272°
2026-05-05 17:57 59.64407 17.91853 111 ft 0 kts 281°
2026-05-05 17:57 59.64408 17.91837 109 ft 4 kts 281°
2026-05-05 17:58 59.64417 17.91737 109 ft 11 kts 279°
2026-05-05 17:58 59.64442 17.91589 107 ft 11 kts 331°
2026-05-05 17:58 59.64478 17.91594 109 ft 7 kts 11°
2026-05-05 17:58 59.64767 17.91700 108 ft 78 kts 10°
2026-05-05 17:59 59.65528 17.91976 110 ft 143 kts 11°
2026-05-05 17:59 59.66560 17.92342 631 ft 148 kts 10°
2026-05-05 17:59 59.67580 17.92711 1331 ft 149 kts
2026-05-05 17:59 59.68588 17.92567 1948 ft 151 kts 336°
2026-05-05 18:00 59.69437 17.91197 2257 ft 168 kts 300°
2026-05-05 18:00 59.69680 17.88844 2484 ft 193 kts 265°
2026-05-05 18:00 59.69461 17.86139 3017 ft 201 kts 262°
2026-05-05 18:00 59.69231 17.83323 3592 ft 213 kts 262°
2026-05-05 18:01 59.68996 17.80393 4346 ft 222 kts 262°
2026-05-05 18:01 59.68828 17.78327 4645 ft 238 kts 261°
2026-05-05 18:01 59.68404 17.74991 5085 ft 261 kts 255°
2026-05-05 18:01 59.67858 17.71486 5867 ft 270 kts 253°
2026-05-05 18:02 59.67207 17.67970 6724 ft 276 kts 243°
2026-05-05 18:02 59.65931 17.65104 7569 ft 285 kts 219°
2026-05-05 18:02 59.64285 17.62826 8284 ft 296 kts 219°
2026-05-05 18:02 59.62636 17.60238 8835 ft 308 kts 222°
2026-05-05 18:03 59.60985 17.57483 9651 ft 312 kts 223°
2026-05-05 18:03 59.59327 17.54683 10450 ft 314 kts 224°
2026-05-05 18:03 59.57655 17.51880 11243 ft 316 kts 224°
2026-05-05 18:03 59.55962 17.49088 12052 ft 318 kts 223°
2026-05-05 18:04 59.54267 17.46340 12843 ft 320 kts 224°
2026-05-05 18:04 59.52534 17.43566 13624 ft 322 kts 224°
2026-05-05 18:04 59.50787 17.40785 14332 ft 322 kts 224°
2026-05-05 18:04 59.49051 17.38032 15098 ft 320 kts 225°
2026-05-05 18:05 59.47326 17.35297 15886 ft 317 kts 225°
2026-05-05 18:05 59.45609 17.32579 16673 ft 315 kts 226°
2026-05-05 18:05 59.43908 17.29886 17457 ft 313 kts 226°
2026-05-05 18:05 59.42218 17.27210 18220 ft 311 kts 227°
2026-05-05 18:06 59.40531 17.24539 18814 ft 312 kts 227°
2026-05-05 18:06 59.39411 17.22763 19165 ft 313 kts 226°
2026-05-05 18:06 59.37127 17.19141 19854 ft 317 kts 226°
2026-05-05 18:06 59.35400 17.16405 20368 ft 321 kts 226°
2026-05-05 18:07 59.33678 17.13682 20868 ft 324 kts 226°
2026-05-05 18:07 59.31911 17.10900 21364 ft 327 kts 226°
2026-05-05 18:07 59.30125 17.08099 21851 ft 330 kts 226°